SQ4LOL-13 Weather Reports


time (UTC)temp
C
wind
direction
speed
KPH
gust
KPH
rain 1hr
cm
rain 24hr
cm
rain mn
cm
humidity
%
barometer
mb
20260906010309 12 333 12.9 19.3 0.00 0.58 0.05 94 994.7
20260906005325 12 331 11.3 17.7 0.00 0.58 0.05 94 994.8
20260906004344 12 335 11.3 19.3 0.00 0.58 0.05 94 994.8
20260906003303 12 334 12.9 17.7 0.00 0.58 0.05 94 994.9
20260906002301 12 334 11.3 17.7 0.00 0.58 0.05 94 994.8
20260906001258 12 331 11.3 22.5 0.00 0.58 0.05 94 994.7
20260906000257 12 336 12.9 19.3 0.03 0.58 0.05 94 994.6
20260905235254 12 336 12.9 19.3 0.03 0.58 0.05 94 994.6
20260905234252 12 337 12.9 17.7 0.05 0.58 0.05 94 994.5
20260905233250 12 338 11.3 19.3 0.05 0.58 0.05 94 994.5
20260905232248 12 338 11.3 17.7 0.05 0.58 0.05 94 994.5
20260905231248 12 336 11.3 19.3 0.05 0.58 0.05 94 994.5
20260905230304 12 336 11.3 19.3 0.03 0.58 0.03 94 994.6
20260905225241 12 330 11.3 17.7 0.03 0.56 0.03 94 994.5
20260905224240 12 337 12.9 19.3 0.00 0.56 0.00 94 994.6
20260905190216 12 341 11.3 17.7 0.00 0.53 0.53 92 995.0
20260905185154 12 337 11.3 19.3 0.03 0.53 0.53 91 995.0
20260905184151 12 309 8.0 16.1 0.05 0.53 0.53 91 994.9
20260905183150 12 225 14.5 25.7 0.10 0.53 0.53 91 994.9
20260905182149 12 223 17.7 37.0 0.13 0.53 0.53 91 994.9
20260905181146 12 218 12.9 25.7 0.15 0.53 0.53 90 995.0
20260905180144 12 212 16.1 35.4 0.18 0.53 0.53 90 995.2
20260905175142 12 210 11.3 46.7 0.23 0.51 0.51 89 995.3
20260905174140 12 210 11.3 22.5 0.38 0.48 0.48 89 995.5
20260905173138 13 214 11.3 19.3 0.38 0.43 0.43 87 995.6
20260905172136 13 222 16.1 30.6 0.36 0.41 0.41 85 995.6
20260905171134 13 228 17.7 25.7 0.33 0.38 0.38 83 995.7
20260905170132 15 232 19.3 32.2 0.28 0.36 0.36 79 995.4
20260905165150 16 267 17.7 46.7 0.20 0.28 0.28 73 995.3
20260905164128 17 296 6.4 19.3 0.03 0.10 0.10 67 995.4
20260905163126 17 135 1.6 3.2 0.00 0.08 0.08 67 993.9
20260905162124 18 225 1.6 8.0 0.00 0.08 0.08 65 993.8
20260905161123 18 270 1.6 3.2 0.00 0.08 0.08 61 993.7
20260905160120 18 270 1.6 8.0 0.00 0.08 0.08 60 993.3
20260905155158 18 270 1.6 11.3 0.00 0.08 0.08 59 993.3
20260905154116 19 270 1.6 8.0 0.00 0.08 0.08 58 993.2
20260905153114 18 270 1.6 14.5 0.00 0.08 0.08 59 993.1
20260905152112 18 270 1.6 9.7 0.00 0.08 0.08 58 993.2
20260905151110 19 270 1.6 11.3 0.00 0.08 0.08 58 993.1
20260905150109 19 290 3.2 17.7 0.00 0.08 0.08 56 993.1
20260905145110 19 255 1.6 6.4 0.00 0.08 0.08 56 993.1
20260905144104 19 270 1.6 11.3 0.00 0.08 0.08 56 993.0
20260905143102 19 270 1.6 6.4 0.00 0.08 0.08 57 992.9
20260905142100 19 304 4.8 11.3 0.00 0.08 0.08 57 992.8
20260905141118 20 270 1.6 16.1 0.00 0.08 0.08 56 992.8
20260905140056 20 270 1.6 12.9 0.00 0.08 0.08 56 992.9
20260905135055 19 298 3.2 17.7 0.00 0.08 0.08 58 992.7
20260905134053 19 298 3.2 17.7 0.00 0.08 0.08 58 992.7
20260905133050 19 303 1.6 11.3 0.00 0.08 0.08 56 992.6
20260905132048 19 294 6.4 22.5 0.00 0.08 0.08 56 992.6
20260905131045 19 293 4.8 22.5 0.00 0.08 0.08 61 992.5
20260905130054 19 296 6.4 22.5 0.00 0.08 0.08 61 992.6
20260905125042 19 270 1.6 11.3 0.00 0.08 0.08 62 992.5
20260905124041 19 293 3.2 14.5 0.00 0.08 0.08 63 992.5
20260905121034 18 289 4.8 19.3 0.00 0.08 0.08 63 992.4
20260905120053 18 270 1.6 11.3 0.00 0.08 0.08 62 992.4
20260905115030 18 297 6.4 17.7 0.00 0.08 0.08 61 992.2
20260905114028 18 293 4.8 30.6 0.00 0.08 0.08 61 992.2
20260905113026 18 291 4.8 19.3 0.00 0.08 0.08 62 992.1
20260905112024 18 296 4.8 14.5 0.00 0.08 0.08 65 992.0
20260905111034 18 303 6.4 25.7 0.00 0.08 0.08 67 992.1
20260905110040 18 294 4.8 19.3 0.00 0.08 0.08 68 991.6
20260905105038 18 295 3.2 12.9 0.00 0.08 0.08 69 991.9
20260905104016 18 300 3.2 11.3 0.00 0.08 0.08 70 991.8
20260905103024 17 288 3.2 11.3 0.00 0.08 0.08 70 991.9
20260905102012 17 288 3.2 11.3 0.00 0.08 0.08 70 992.0
20260905101041 17 293 3.2 19.3 0.00 0.08 0.08 71 991.9
20260905100019 17 302 4.8 19.3 0.00 0.08 0.08 72 992.0
20260905094516 17 295 4.8 17.7 0.00 0.08 0.08 73 991.9
20260905093504 17 270 3.2 27.4 0.00 0.08 0.08 74 991.8
20260905092000 17 270 1.6 11.3 0.00 0.08 0.08 75 991.6
20260905090957 17 270 1.6 19.3 0.00 0.08 0.08 75 991.7
20260905085956 17 270 1.6 8.0 0.00 0.08 0.08 75 991.6
20260905085014 17 296 4.8 19.3 0.00 0.08 0.08 76 991.5
20260905083952 17 270 1.6 17.7 0.00 0.08 0.08 76 991.3
20260905082951 16 293 4.8 16.1 0.00 0.08 0.08 76 991.4
20260905082019 16 286 1.6 9.7 0.00 0.08 0.08 76 991.3
20260905080946 16 288 1.6 11.3 0.00 0.08 0.08 77 991.2
20260905075944 16 299 3.2 12.9 0.00 0.08 0.08 78 991.0
20260905074943 16 270 1.6 6.4 0.00 0.08 0.08 79 990.8
20260905073940 16 270 1.6 9.7 0.00 0.10 0.08 79 990.6
20260905072938 16 270 1.6 19.3 0.00 0.10 0.08 79 990.5
20260905071956 16 304 4.8 17.7 0.00 0.13 0.08 80 990.2
20260905070955 16 299 1.6 17.7 0.00 0.13 0.08 80 990.1
20260905065952 16 287 1.6 9.7 0.00 0.13 0.08 80 990.0
20260905064930 16 294 3.2 17.7 0.00 0.13 0.08 80 989.8
20260905063928 16 291 4.8 14.5 0.00 0.13 0.08 80 989.7
20260905062926 16 291 4.8 22.5 0.00 0.13 0.08 82 989.4
20260905061924 16 293 3.2 17.7 0.00 0.13 0.08 82 989.3
20260905060942 15 295 1.6 19.3 0.00 0.13 0.08 83 989.1
20260905055920 15 239 1.6 4.8 0.00 0.13 0.08 83 989.0
20260905054918 15 270 1.6 22.5 0.00 0.13 0.08 84 988.9
20260905053916 15 239 1.6 3.2 0.00 0.13 0.08 84 988.6
20260905052913 16 237 1.6 4.8 0.00 0.13 0.08 85 988.4
20260905051912 16 251 1.6 6.4 0.00 0.13 0.08 85 988.2
20260905050930 16 246 1.6 11.3 0.00 0.13 0.08 86 988.0
20260905045928 16 236 1.6 6.4 0.00 0.13 0.08 87 987.9
20260905044926 16 270 1.6 9.7 0.00 0.13 0.08 87 987.9
20260905043944 16 246 1.6 6.4 0.00 0.13 0.08 89 987.6
20260905042902 16 229 1.6 4.8 0.00 0.13 0.08 89 987.4
20260905041902 16 251 1.6 14.5 0.00 0.13 0.05 90 987.0
20260905040858 16 270 1.6 4.8 0.00 0.13 0.05 90 986.9
20260905035855 16 246 1.6 8.0 0.00 0.13 0.05 91 986.8
20260905034853 16 270 1.6 11.3 0.03 0.13 0.05 91 986.7
20260905033911 16 270 1.6 19.3 0.03 0.13 0.05 91 986.8
20260905032849 16 203 1.6 3.2 0.05 0.13 0.05 91 986.3
20260905031919 16 191 1.6 3.2 0.05 0.13 0.05 90 986.2
20260905030845 16 168 1.6 3.2 0.05 0.13 0.05 90 986.0
20260905025904 16 180 1.6 3.2 0.05 0.10 0.05 89 986.1
20260905024842 17 201 1.6 4.8 0.03 0.10 0.03 88 986.3
20260905023840 17 175 1.6 3.2 0.03 0.10 0.03 87 986.3
20260905022838 17 184 1.6 3.2 0.00 0.08 0.00 86 986.4
20260905021837 17 171 1.6 3.2 0.00 0.08 0.00 86 986.4
20260905020834 17 180 1.6 3.2 0.00 0.08 0.00 85 986.2
20260905015832 17 184 1.6 3.2 0.00 0.08 0.00 85 986.0
20260905014829 17 171 1.6 3.2 0.00 0.08 0.00 84 986.2
20260905013828 17 158 1.6 3.2 0.00 0.08 0.00 83 986.0
20260905012826 17 173 1.6 4.8 0.00 0.08 0.00 82 985.9
20260905011824 17 218 1.6 4.8 0.00 0.08 0.00 81 986.0
20260905010822 18 206 1.6 3.2 0.00 0.08 0.00 81 986.0